Weather History for Sallisaw, OK

Change the Weather History Date:

Wednesday, April 3, 2013

  Actual Average Record
Temperature  
Mean Temperature 46 °F -  
Max Temperature 50 °F 71 °F 86 °F (1954)
Min Temperature 41 °F 45 °F 24 °F (1975)
Degree Days  
Heating Degree Days 20    
Moisture  
Dew Point 32 °F    
Average Humidity 62    
Maximum Humidity 93    
Minimum Humidity 37    
Precipitation  
Precipitation 0.01 in - - ()
Sea Level Pressure  
Sea Level Pressure 30.19 in    
Wind  
Wind Speed 9 mph (East)    
Max Wind Speed 21 mph    
Max Gust Speed 31 mph    
Visibility 10 miles    
Events Rain    
Averages and records for this station are not official NWS values.
T = Trace of Precipitation, MM = Missing Value Source: NWS Daily Summary

Daily Weather History Graph

Daily Weather History Graph

Search for Another Location

Airport:

Trip Planner

Search our weather history database for the weather conditions in past years. The results will help you decide how hot, cold, wet, or windy it might be!

Date:

Astronomy

Apr. 03, 2013 Rise Set
Actual Time 7:02 AM CDT 7:42 PM CDT
Civil Twilight 6:36 AM CDT 8:08 PM CDT
Nautical Twilight 6:06 AM CDT 8:38 PM CDT
Astronomical Twilight 5:35 AM CDT 9:09 PM CDT
Moon 2:30 AM CDT (4/3) 1:08 PM CDT (4/3)
Length of Visible Light 13h 31m
Length of Day
12h 40m
Last Quarter, 44% of the Moon is Illuminated
Apr 3
Last Quarter
Apr 10
New
Apr 18
First Quarter
Apr 25
Full
May 2
Last Quarter

Hourly Weather History & Observations

Time (CDT) Temp. Windchill Dew Point Humidity Pressure Visibility Wind Dir Wind Speed Gust Speed Precip Events Conditions
12:15 AM 41.0 °F 34.7 °F 39.2 °F 93% 30.19 in 10.0 mi East 10.4 mph - N/A   Overcast
12:35 AM 41.0 °F 34.7 °F 37.4 °F 87% 30.18 in 10.0 mi East 10.4 mph - N/A   Overcast
12:55 AM 41.0 °F 35.2 °F 35.6 °F 81% 30.19 in 10.0 mi East 9.2 mph - N/A   Overcast
1:15 AM 41.0 °F 34.3 °F 37.4 °F 87% 30.19 in 10.0 mi East 11.5 mph - N/A   Overcast
1:35 AM 41.0 °F 34.3 °F 35.6 °F 81% 30.19 in 10.0 mi East 11.5 mph 17.3 mph N/A   Overcast
1:55 AM 41.0 °F 34.3 °F 35.6 °F 81% 30.18 in 10.0 mi East 11.5 mph - N/A   Overcast
2:15 AM 41.0 °F 35.2 °F 35.6 °F 81% 30.17 in 10.0 mi East 9.2 mph - N/A   Overcast
2:35 AM 41.0 °F 35.8 °F 35.6 °F 81% 30.16 in 10.0 mi East 8.1 mph - N/A   Overcast
2:55 AM 41.0 °F 35.2 °F 35.6 °F 81% 30.15 in 10.0 mi East 9.2 mph - N/A   Overcast
3:15 AM 41.0 °F 35.2 °F 33.8 °F 76% 30.15 in 10.0 mi East 9.2 mph - N/A   Overcast
3:35 AM 41.0 °F 35.8 °F 33.8 °F 76% 30.15 in 10.0 mi East 8.1 mph - N/A   Overcast
3:55 AM 41.0 °F 36.4 °F 33.8 °F 76% 30.16 in 10.0 mi East 6.9 mph - N/A   Overcast
4:15 AM 41.0 °F 36.4 °F 32.0 °F 70% 30.17 in 10.0 mi East 6.9 mph - N/A   Overcast
4:35 AM 41.0 °F 35.8 °F 32.0 °F 70% 30.17 in 10.0 mi East 8.1 mph - N/A   Overcast
4:55 AM 41.0 °F 35.8 °F 32.0 °F 70% 30.18 in 10.0 mi East 8.1 mph - N/A   Overcast
5:15 AM 41.0 °F 35.8 °F 32.0 °F 70% 30.19 in 10.0 mi East 8.1 mph - N/A   Overcast
5:35 AM 41.0 °F 34.3 °F 30.2 °F 65% 30.19 in 10.0 mi East 11.5 mph - N/A   Overcast
5:55 AM 41.0 °F 34.7 °F 30.2 °F 65% 30.19 in 10.0 mi East 10.4 mph - N/A   Overcast
6:15 AM 41.0 °F 35.8 °F 32.0 °F 70% 30.19 in 10.0 mi East 8.1 mph - N/A   Overcast
6:55 AM 41.0 °F 35.8 °F 30.2 °F 65% 30.19 in 10.0 mi East 8.1 mph - N/A   Overcast
7:15 AM 41.0 °F 36.4 °F 30.2 °F 65% 30.19 in 10.0 mi ENE 6.9 mph - N/A   Overcast
7:35 AM 42.8 °F 39.3 °F 30.2 °F 61% 30.20 in 10.0 mi ENE 5.8 mph - N/A   Overcast
7:55 AM 42.8 °F 39.3 °F 32.0 °F 66% 30.21 in 10.0 mi ENE 5.8 mph - N/A   Overcast
8:15 AM 42.8 °F 39.3 °F 32.0 °F 66% 30.22 in 10.0 mi ENE 5.8 mph - N/A   Overcast
8:35 AM 42.8 °F 40.1 °F 32.0 °F 66% 30.23 in 10.0 mi NE 4.6 mph - N/A   Overcast
8:55 AM 42.8 °F 40.1 °F 32.0 °F 66% 30.23 in 10.0 mi ENE 4.6 mph - N/A   Overcast
9:15 AM 42.8 °F 38.6 °F 32.0 °F 66% 30.22 in 10.0 mi ENE 6.9 mph - N/A   Overcast
9:35 AM 42.8 °F 38.0 °F 32.0 °F 66% 30.23 in 10.0 mi ENE 8.1 mph - N/A   Mostly Cloudy
9:55 AM 44.6 °F 40.2 °F 32.0 °F 61% 30.22 in 10.0 mi East 8.1 mph - N/A   Scattered Clouds
10:15 AM 44.6 °F 38.1 °F 30.2 °F 57% 30.22 in 10.0 mi East 13.8 mph - N/A   Scattered Clouds
10:35 AM 44.6 °F 36.4 °F 28.4 °F 53% 30.21 in 10.0 mi East 20.7 mph 24.2 mph N/A   Clear
10:55 AM 46.4 °F 39.2 °F 26.6 °F 46% 30.21 in 10.0 mi East 18.4 mph 31.1 mph N/A   Clear
11:15 AM 46.4 °F 39.2 °F 28.4 °F 50% 30.20 in 10.0 mi East 18.4 mph 27.6 mph N/A   Scattered Clouds
11:35 AM 46.4 °F 39.5 °F 26.6 °F 46% 30.20 in 10.0 mi ESE 17.3 mph 26.5 mph N/A   Scattered Clouds
11:55 AM 46.4 °F 39.0 °F 26.6 °F 46% 30.21 in 10.0 mi East 19.6 mph 26.5 mph N/A   Mostly Cloudy
12:15 PM 46.4 °F 39.5 °F 23.0 °F 40% 30.20 in 10.0 mi East 17.3 mph 25.3 mph N/A   Mostly Cloudy
12:35 PM 48.2 °F - 23.0 °F 37% 30.22 in 10.0 mi ESE 12.7 mph - N/A   Overcast
12:55 PM 48.2 °F - 23.0 °F 37% 30.21 in 10.0 mi ESE 11.5 mph 16.1 mph N/A   Overcast
1:15 PM 48.2 °F - 24.8 °F 40% 30.20 in 10.0 mi East 11.5 mph - N/A   Overcast
1:35 PM 48.2 °F - 26.6 °F 43% 30.19 in 10.0 mi East 10.4 mph 17.3 mph N/A   Overcast
1:55 PM 48.2 °F - 24.8 °F 40% 30.18 in 10.0 mi East 12.7 mph - N/A   Overcast
2:15 PM 48.2 °F - 26.6 °F 43% 30.18 in 10.0 mi East 9.2 mph - N/A   Overcast
2:55 PM 50.0 °F - 26.6 °F 40% 30.18 in 10.0 mi ESE 8.1 mph - N/A   Overcast
3:15 PM 50.0 °F - 26.6 °F 40% 30.19 in 10.0 mi East 6.9 mph - N/A   Overcast
3:35 PM 50.0 °F - 26.6 °F 40% 30.20 in 10.0 mi SE 5.8 mph - N/A   Overcast
3:55 PM 50.0 °F - 28.4 °F 43% 30.20 in 10.0 mi SE 4.6 mph - N/A   Overcast
4:15 PM 50.0 °F - 28.4 °F 43% 30.19 in 10.0 mi East 4.6 mph - N/A   Overcast
4:35 PM 50.0 °F - 28.4 °F 43% 30.19 in 10.0 mi East 4.6 mph - N/A   Overcast
4:55 PM 48.2 °F - 30.2 °F 50% 30.18 in 10.0 mi East 3.5 mph - N/A Rain Light Rain
5:15 PM 48.2 °F - 32.0 °F 54% 30.19 in 10.0 mi Calm Calm - N/A Rain Light Rain
5:35 PM 48.2 °F - 32.0 °F 54% 30.18 in 10.0 mi Calm Calm - N/A Rain Light Rain
5:55 PM 46.4 °F - 33.8 °F 62% 30.18 in 10.0 mi Calm Calm - 0.01 in Rain Light Rain
6:15 PM 46.4 °F - 32.0 °F 57% 30.18 in 10.0 mi Calm Calm - N/A   Mostly Cloudy
6:35 PM 46.4 °F 45.2 °F 32.0 °F 57% 30.17 in 10.0 mi NE 3.5 mph - N/A   Overcast
6:55 PM 46.4 °F 44.3 °F 32.0 °F 57% 30.17 in 10.0 mi ENE 4.6 mph - N/A   Overcast
7:15 PM 46.4 °F 44.3 °F 32.0 °F 57% 30.18 in 10.0 mi East 4.6 mph - N/A   Light Drizzle
7:35 PM 46.4 °F 44.3 °F 32.0 °F 57% 30.18 in 10.0 mi ENE 4.6 mph - N/A   Overcast
7:55 PM 46.4 °F 42.9 °F 32.0 °F 57% 30.17 in 10.0 mi ENE 6.9 mph - N/A   Overcast
8:15 PM 46.4 °F 43.5 °F 32.0 °F 57% 30.18 in 10.0 mi East 5.8 mph - N/A   Overcast
8:35 PM 46.4 °F 45.2 °F 35.6 °F 66% 30.18 in 10.0 mi North 3.5 mph - N/A   Overcast
8:55 PM 44.6 °F 42.2 °F 37.4 °F 76% 30.18 in 10.0 mi North 4.6 mph - N/A Rain Light Rain
9:15 PM 44.6 °F - 37.4 °F 76% 30.18 in 10.0 mi Calm Calm - N/A   Light Drizzle
9:35 PM 44.6 °F 43.1 °F 37.4 °F 76% 30.19 in 10.0 mi North 3.5 mph - N/A   Overcast
10:15 PM 44.6 °F - 37.4 °F 76% 30.20 in 10.0 mi Calm Calm - N/A   Overcast
10:35 PM 44.6 °F - 37.4 °F 76% 30.19 in 10.0 mi Calm Calm - N/A   Overcast
10:55 PM 44.6 °F - 37.4 °F 76% 30.19 in 10.0 mi Calm Calm - N/A Rain Rain
11:15 PM 44.6 °F - 37.4 °F 76% 30.20 in 10.0 mi Calm Calm - N/A   Overcast
11:35 PM 44.6 °F - 37.4 °F 76% 30.19 in 10.0 mi Calm Calm - N/A   Overcast
11:55 PM 44.6 °F - 39.2 °F 81% 30.19 in 10.0 mi Calm Calm - N/A   Overcast